User: anonymous   Login
Location: Owatonna
(44.0840°N, 93.2260°W)
Time: 12:52:49
(UTC-05:00)
Language:

ALOS - Orbit

View from above orbital plane
View from above orbital plane
View from above satellite
View from above satellite

Ground track
Ground track

The orbit data is extracted from the following two-line orbital elements,

1 28931U 06002A   17111.96195655 +.00000159 +00000-0 +40077-4 0  9995
2 28931 097.8482 142.1171 0002474 104.8817 255.2661 14.62338891599247
Epoch (UTC): 21 April 2017 23:05:13
Eccentricity: 0.0002474
inclination: 97.8482°
perigee height: 684 km
apogee height: 687 km
right ascension of ascending node: 142.1171°
argument of perigee: 104.8817°
revolutions per day: 14.62338891
mean anomaly at epoch: 255.2661°
orbit number at epoch: 59924

The dashed part of the orbit path shows where the satellite is in the earth's shadow,  

DLR